Weather History for Omak, WA

Change the Weather History Date:

Tuesday, November 1, 2011

  Actual Average Record
Temperature  
Mean Temperature 35 °F 42 °F  
Max Temperature 51 °F 52 °F 62 °F (1953)
Min Temperature 19 °F 32 °F 5 °F (1935)
Degree Days  
Heating Degree Days 30 23  
Month to date heating degree days 30 23  
Since 1 July heating degree days 703 683  
Cooling Degree Days 0 0  
Month to date cooling degree days 0 0  
Year to date cooling degree days 424 665  
Moisture  
Dew Point 20 °F    
Average Humidity 57    
Maximum Humidity 84    
Minimum Humidity 29    
Precipitation  
Precipitation 0.00 in 0.06 in 0.55 in (1950)
Month to date precipitation 0.00 0.06  
Year to date precipitation 9.43 10.76  
Sea Level Pressure  
Sea Level Pressure 30.48 in    
Wind  
Wind Speed 3 mph (West)    
Max Wind Speed 9 mph    
Max Gust Speed 12 mph    
Visibility 10 miles    
Events      
T = Trace of Precipitation, MM = Missing Value Source: NWS Daily Summary

Daily Weather History Graph

Daily Weather History Graph

Search for Another Location

Airport:

Trip Planner

Search our weather history database for the weather conditions in past years. The results will help you decide how hot, cold, wet, or windy it might be!

Date:

Astronomy

Nov. 01, 2011 Rise Set
Actual Time 7:43 AM PDT 5:38 PM PDT
Civil Twilight 7:10 AM PDT 6:11 PM PDT
Nautical Twilight 6:33 AM PDT 6:48 PM PDT
Astronomical Twilight 5:57 AM PDT 7:24 PM PDT
Moon 1:38 PM PDT (11/1) 11:23 PM PDT (11/1)
Length of Visible Light 11h 00m
Length of Day
9h 54m
Waxing Crescent, 41% of the Moon is Illuminated
Nov 1
Waxing Crescent
Nov 2
First Quarter
Nov 10
Full
Nov 18
Last Quarter
Nov 24
New

Hourly Weather History & Observations

Time (PDT) Temp. Windchill Dew Point Humidity Pressure Visibility Wind Dir Wind Speed Gust Speed Precip Events Conditions
12:53 AM 27.0 °F 23.0 °F 18.0 °F 69% 30.38 in 10.0 mi WNW 3.5 mph - N/A   Clear
1:53 AM 27.0 °F 21.6 °F 18.0 °F 69% 30.38 in 10.0 mi WNW 4.6 mph - N/A   Clear
2:53 AM 24.1 °F 19.7 °F 17.1 °F 75% 30.40 in 10.0 mi NW 3.5 mph - N/A   Clear
3:53 AM 21.9 °F 15.7 °F 16.0 °F 78% 30.42 in 10.0 mi NW 4.6 mph - N/A   Clear
4:53 AM 19.9 °F 14.9 °F 15.1 °F 81% 30.45 in 10.0 mi WNW 3.5 mph - N/A   Clear
7:53 AM 21.0 °F 12.4 °F 16.0 °F 81% 30.52 in 10.0 mi NNW 6.9 mph - N/A   Clear
8:53 AM 28.9 °F - 21.9 °F 75% 30.54 in 10.0 mi Calm Calm - N/A   Clear
9:53 AM 35.1 °F - 23.0 °F 61% 30.54 in 10.0 mi Calm Calm - N/A   Clear
10:53 AM 39.9 °F - 21.9 °F 49% 30.54 in 10.0 mi Calm Calm - N/A   Clear
11:53 AM 43.0 °F - 24.1 °F 47% 30.54 in 10.0 mi Calm Calm - N/A   Clear
12:53 PM 48.0 °F - 23.0 °F 37% 30.53 in 10.0 mi Calm Calm - N/A   Clear
2:53 PM 51.1 °F - 21.0 °F 31% 30.51 in 10.0 mi South 4.6 mph - N/A   Clear
4:53 PM 48.0 °F - 19.9 °F 33% 30.49 in 10.0 mi Calm Calm - N/A   Clear
5:53 PM 35.1 °F 31.0 °F 18.0 °F 50% 30.51 in 10.0 mi West 4.6 mph - N/A   Clear
6:53 PM 37.0 °F 32.4 °F 19.9 °F 50% 30.51 in 10.0 mi West 5.8 mph - N/A   Clear
7:53 PM 36.0 °F 33.3 °F 21.0 °F 55% 30.51 in 10.0 mi West 3.5 mph - N/A   Clear
8:53 PM 34.0 °F 28.0 °F 19.9 °F 56% 30.49 in 10.0 mi SW 6.9 mph - N/A   Clear
9:53 PM 32.0 °F 27.5 °F 19.9 °F 61% 30.49 in 10.0 mi SSW 4.6 mph - N/A   Clear
10:53 PM 33.1 °F 30.0 °F 19.9 °F 59% 30.48 in 10.0 mi SSW 3.5 mph - N/A   Clear
11:53 PM 33.1 °F 28.7 °F 21.9 °F 64% 30.47 in 10.0 mi SW 4.6 mph - N/A   Clear